Dewpoint
48 44 41 40 40 36 35 34 33 31 30 28 28 27 25 25 24 24 22 19 19 18
48 47 43 39 38 37 35 34 33 31 30 29 28 27 26 25 24 23 24 22 20 19
48 48 45 39 37 36 35 32 32 31 30 29 28 27 26 25 24 23 23 23 21 20
50 48 46 39 37 35 34 32 32 31 30 29 28 28 26 26 24 22 22 22 21 19
51 49 45 39 36 35 33 32 32 31 30 29 29 27 26 25 24 22 21 21 21 19
50 48 44 38 36 35 33 32 32 31 30 29 29 27 26 25 24 23 22 21 20 20
48 46 44 38 36 35 34 33 32 31 31 30 29 28 26 25 24 23 22 22 21 21
50 47 45 40 37 35 34 33 32 32 31 30 29 28 27 25 24 23 22 23 22 22
51 49 46 42 37 35 34 33 33 32 31 30 29 29 30 27 25 23 23 22 22 22
43 49 48 41 38 36 34 33 32 32 31 30 29 31 32 31 26 24 23 23 22 22
37 44 47 40 37 36 34 33 33 32 31 30 29 32 33 33 26 25 24 24 22 21
34 37 42 41 38 36 34 33 32 31 30 29 28 32 33 33 26 25 24 24 23 21
32 34 39 40 38 36 34 32 31 30 30 29 28 32 34 33 26 24 23 23 23 24
30 32 36 38 36 34 33 30 29 28 27 28 26 31 34 34 26 24 23 23 24 26
Wind_Speed
27 24 22 23 21 22 24 23 21 21 21 22 21 19 19 17 16 16 16 15 11 10
25 23 21 22 22 21 18 17 20 22 21 19 20 20 19 18 19 17 16 15 13 9
26 24 20 19 22 22 18 18 20 21 21 21 20 21 22 17 15 19 16 14 15 11
20 21 20 20 20 20 19 21 22 23 22 22 22 21 21 19 19 22 18 14 18 17
17 20 20 18 19 19 21 21 23 22 20 22 22 21 23 23 20 23 22 20 19 19
20 22 22 21 22 21 21 21 20 22 25 24 23 22 22 22 21 22 22 21 22 21
22 24 24 22 23 22 21 23 22 22 22 22 23 23 22 21 20 20 19 20 20 20
20 22 22 22 23 23 24 22 22 22 21 20 21 20 22 22 21 22 20 19 19 19
10 21 21 20 21 20 20 20 21 21 22 22 19 23 27 23 23 22 23 23 19 18
11 15 20 20 23 22 22 21 22 21 20 21 21 23 27 28 20 22 22 21 21 18
15 6 13 22 23 22 21 23 22 21 21 21 21 24 28 28 17 19 19 20 21 22
15 12 6 16 19 19 20 19 19 20 20 20 18 23 27 26 17 16 17 17 18 20
14 13 8 12 14 17 16 18 16 18 18 19 16 23 26 26 16 15 14 13 16 23
14 12 9 8 9 13 16 15 16 16 13 15 16 20 27 29 19 18 17 16 17 17
Wind_Direction
186 189 188 181 181 186 190 192 183 187 191 187 185 184 187 197 203 199 200 198 198 197
191 189 189 184 184 187 184 182 178 185 187 182 185 183 187 197 201 197 199 202 199 195
194 196 189 179 185 183 179 171 174 183 188 185 184 185 186 194 192 196 198 194 192 192
199 193 187 182 183 178 170 173 177 186 189 186 189 188 190 192 188 199 195 187 192 197
186 189 190 183 177 174 177 177 184 185 186 190 191 187 194 194 190 193 196 194 191 197
178 185 186 177 178 180 181 183 184 187 193 193 191 191 196 195 189 193 194 186 193 192
177 184 186 177 180 182 188 188 190 193 195 196 196 194 191 192 191 190 188 186 190 185
181 180 182 178 181 184 189 190 191 193 195 195 195 194 190 191 188 189 189 186 189 189
206 175 184 178 179 183 188 189 189 193 191 190 196 197 194 187 189 191 191 193 190 188
337 194 180 176 182 187 187 187 194 195 193 198 200 199 197 196 190 192 195 192 188 185
352 321 183 173 182 185 188 189 193 194 194 193 199 197 197 194 188 191 193 191 186 185
342 333 226 188 183 181 180 186 188 191 193 196 200 195 195 190 183 187 188 185 182 180
325 319 277 205 183 175 187 185 182 187 193 194 193 192 191 183 179 179 178 174 177 181
320 313 286 217 169 176 172 172 176 179 180 181 183 187 189 183 177 177 171 178 174 177